Theta_e
308 308 309 308 307 307 308 308 306 305 305 305 304 303 303 303 303 303 305 306 308 310 312 311 311 311 311 314 315 316 312 314 317 319 319 320 318 320 320 320 321 321 321 322 326
309 309 309 309 308 309 309 308 305 305 305 306 305 303 302 303 303 310 311 308 311 308 313 314 313 311 312 312 314 313 310 313 314 316 317 317 317 318 318 319 319 320 322 321 325
308 310 310 310 310 310 309 306 305 306 306 306 306 303 302 302 314 318 313 313 314 313 316 314 310 310 311 313 312 311 311 311 315 316 317 316 316 317 317 316 318 319 319 320 321
306 309 311 311 311 309 306 305 305 304 304 304 305 303 302 303 316 317 312 313 315 313 311 308 308 311 308 309 312 312 312 314 314 315 315 314 315 316 316 317 317 318 318 318 319
305 308 310 307 306 306 306 307 308 307 304 303 303 302 302 303 306 317 314 311 310 308 309 314 314 312 308 308 309 310 310 311 312 313 312 313 312 313 314 315 316 317 317 318 319
307 305 308 307 308 308 308 309 309 309 309 304 302 302 302 302 308 315 316 313 311 310 315 315 315 314 313 310 310 309 310 311 312 313 312 312 313 313 315 315 316 316 317 318 318
309 308 306 307 308 310 310 309 310 312 308 306 302 302 302 305 315 317 316 313 311 315 315 315 314 314 313 311 311 311 310 309 310 312 311 312 311 312 315 315 315 316 316 317 317
308 309 307 307 307 310 312 313 312 313 314 304 302 302 305 309 315 317 315 314 314 315 315 315 315 313 313 312 309 309 306 309 309 310 312 312 311 312 315 314 313 314 315 316 316
311 308 310 307 307 309 312 313 314 315 315 308 305 308 312 309 308 316 315 314 315 315 315 315 315 312 310 307 306 304 308 309 310 310 310 311 310 311 315 314 313 314 315 315 316
313 312 310 310 308 309 311 314 315 315 316 312 310 310 312 315 317 312 314 314 314 314 314 313 312 307 304 306 308 309 309 309 310 311 309 309 309 309 312 312 313 314 314 315 315
313 313 313 309 311 311 312 315 315 315 315 317 314 314 315 316 317 317 314 312 312 312 310 310 309 309 308 307 309 309 309 309 309 310 310 309 310 309 310 311 311 314 314 315 315
313 314 312 311 310 309 314 315 315 315 314 315 315 315 315 315 315 317 314 313 311 309 309 308 308 308 308 309 309 309 310 309 310 310 309 309 311 309 309 310 312 313 314 315 315
311 311 312 313 311 310 313 315 316 316 313 314 314 314 314 314 314 316 313 311 310 308 308 308 310 310 310 311 311 310 310 310 311 313 311 310 313 312 310 310 312 313 314 314 315
309 310 310 313 311 310 312 315 316 316 311 313 316 316 315 315 315 317 317 312 311 310 308 309 309 310 310 310 310 310 309 311 316 315 315 312 316 313 312 310 309 311 313 314 315
306 308 310 314 311 311 314 316 316 316 316 317 317 317 316 316 314 316 317 315 312 311 309 311 311 310 311 311 310 311 312 315 316 314 312 312 309 313 311 312 310 311 311 313 314
305 309 313 314 312 311 315 316 316 317 318 319 315 314 315 314 314 313 316 316 314 311 310 310 311 310 310 312 312 315 316 314 311 310 312 313 311 313 312 311 310 311 312 312 313
309 313 313 314 312 310 316 316 314 319 315 317 315 314 312 312 313 313 312 312 311 312 311 311 311 311 312 313 314 312 312 313 312 313 316 312 312 312 311 312 311 312 314 313 313
312 311 314 312 313 313 314 315 314 314 317 315 314 314 315 312 312 312 312 311 311 310 310 311 313 313 316 314 313 312 312 312 314 314 314 313 314 312 310 311 314 313 314 314 315
311 313 316 315 307 312 315 314 310 319 314 314 314 314 313 311 311 310 310 310 311 310 311 312 313 314 316 314 313 315 314 312 313 311 310 311 312 311 311 312 313 313 313 312 313
312 312 318 311 314 314 309 310 313 315 314 314 313 313 312 311 311 310 310 312 314 313 310 311 312 312 315 314 313 314 313 314 309 311 312 312 311 311 311 312 313 312 312 312 313
313 312 311 314 317 314 312 313 315 315 315 314 312 312 311 311 311 312 312 313 313 312 310 311 310 311 312 312 312 313 314 311 309 309 310 313 310 308 312 313 311 311 312 312 312
311 309 312 317 314 309 313 312 313 315 315 315 313 311 311 311 311 313 314 314 311 311 310 311 313 311 312 310 311 310 311 310 309 310 314 312 312 310 308 310 310 311 312 313 315
309 309 312 313 312 307 308 311 313 313 315 314 313 312 310 309 309 311 312 311 310 310 311 312 311 312 311 309 309 312 312 310 308 306 309 313 311 309 308 309 312 311 313 312 314
309 307 310 309 308 307 309 310 312 312 313 313 313 311 311 311 308 308 308 309 309 308 311 313 310 311 312 311 307 308 310 311 309 304 310 311 311 310 310 309 311 312 312 312 311
308 307 306 305 306 306 308 311 311 311 313 312 313 312 310 310 307 307 308 307 308 307 309 307 308 308 308 309 308 308 309 309 310 310 310 310 310 309 310 311 310 312 312 311 310
307 306 306 306 307 308 308 311 311 312 312 312 312 311 310 312 309 309 308 306 306 307 307 304 307 308 308 308 308 309 309 309 309 309 309 309 309 309 311 311 311 311 310 309 309
305 304 306 306 307 307 309 310 311 309 310 310 311 310 310 310 310 308 306 305 305 305 305 304 304 306 307 308 309 309 309 309 311 311 311 312 312 313 311 311 311 309 307 306 307
Wind_Speed
19 16 14 13 9 8 8 8 9 7 7 7 5 4 4 6 9 13 15 8 6 11 9 8 6 7 10 7 6 6 3 3 5 5 6 8 5 5 13 17 12 14 19 20 24
22 18 14 12 10 7 7 6 6 7 8 7 6 5 4 7 11 10 4 4 6 16 10 7 7 8 5 5 6 4 4 8 5 4 6 7 7 20 7 14 20 22 22 21 14
24 21 17 13 11 10 7 7 6 6 7 7 6 5 5 8 4 4 3 7 9 12 9 7 7 9 4 4 4 4 5 4 4 8 11 7 12 18 8 9 21 24 25 28 22
25 22 19 15 12 10 9 7 6 6 6 6 5 4 4 4 4 4 6 6 8 9 9 8 9 7 4 4 6 3 9 7 4 9 9 8 15 15 17 23 28 30 30 29 26
26 23 19 16 13 10 9 9 8 7 5 5 4 3 3 3 3 5 5 4 5 9 13 11 13 7 5 5 4 4 3 5 9 11 13 20 16 16 21 23 23 23 25 26 25
28 25 20 15 12 11 9 8 8 8 6 5 4 3 3 3 6 7 6 4 7 13 11 7 3 3 2 2 4 4 3 6 5 10 10 7 13 7 5 20 21 20 21 22 24
28 26 20 16 12 11 10 8 8 8 7 5 4 4 7 8 7 10 8 5 7 8 6 3 0 1 2 2 1 2 4 6 5 7 6 6 6 6 17 18 18 23 23 22 20
30 28 22 17 12 11 10 9 10 9 7 6 4 5 6 4 13 13 9 10 9 8 6 2 3 3 2 0 5 3 5 3 6 3 7 5 7 7 11 14 14 17 19 22 22
29 30 25 19 13 10 11 13 12 11 8 5 5 5 6 7 12 13 12 11 9 6 5 8 4 2 2 5 4 7 1 0 7 4 4 3 5 6 23 26 19 18 21 21 26
30 30 30 24 15 10 10 14 9 8 6 6 7 6 5 3 4 11 15 11 8 5 5 2 3 3 4 4 3 2 1 3 5 5 3 10 13 10 25 23 22 24 23 25 27
30 33 31 27 20 10 8 8 5 4 7 9 11 14 8 6 5 6 13 17 14 2 3 2 3 6 9 7 5 3 4 5 7 12 4 11 11 11 18 17 21 25 29 29 30
31 35 34 29 24 12 8 4 2 9 12 20 23 25 24 12 6 6 11 12 7 6 3 4 6 10 6 4 5 5 4 6 7 8 5 9 16 9 6 8 19 20 24 29 31
33 35 35 31 22 9 8 2 6 8 4 10 6 10 16 17 9 13 14 12 5 6 6 7 8 6 6 4 4 5 4 5 8 4 5 8 14 4 3 9 19 21 22 25 29
31 32 33 32 12 5 4 5 8 5 4 5 4 3 11 8 5 21 17 12 2 9 7 6 5 7 2 7 6 6 7 7 4 1 4 3 17 10 7 9 5 20 27 28 27
30 30 32 29 19 9 5 4 7 2 4 1 1 6 15 9 0 4 22 20 8 6 6 9 4 3 5 9 7 9 5 7 3 4 2 5 8 5 6 11 12 14 25 32 35
30 31 33 27 19 4 5 3 2 3 4 2 5 5 5 4 2 5 7 12 6 5 3 6 2 6 8 2 5 2 2 3 4 2 4 8 8 0 2 7 6 13 28 33 39
34 32 27 19 7 7 3 2 3 3 4 4 3 1 5 5 2 3 4 5 6 3 5 5 10 5 5 3 2 4 5 3 4 3 12 4 5 10 10 14 7 11 28 32 32
33 26 16 5 5 8 1 3 3 2 4 4 5 6 2 1 2 2 2 1 3 3 2 4 9 6 4 6 7 4 7 4 6 8 15 3 6 6 8 9 9 17 20 29 23
32 15 12 2 5 6 4 2 2 3 4 6 8 3 1 1 2 2 2 3 3 5 5 3 4 2 2 2 5 4 4 1 1 2 3 5 7 7 11 7 7 16 22 27 33
26 7 19 7 8 3 4 3 0 4 6 5 3 3 2 1 1 2 2 3 4 2 3 3 3 2 1 4 4 3 5 3 2 3 5 4 6 10 9 8 9 11 18 31 34
13 5 16 4 4 3 2 3 1 9 19 7 7 4 3 3 2 2 3 1 3 1 4 3 4 4 2 4 7 1 1 3 2 4 3 6 5 5 8 5 7 12 20 27 29
13 2 13 4 4 2 1 5 9 2 8 7 8 4 3 4 4 5 7 4 2 1 2 0 4 5 10 1 3 3 7 6 4 4 4 4 14 9 7 3 7 14 23 30 34
16 7 9 3 2 3 5 5 4 8 1 2 5 1 8 6 5 3 2 5 4 3 2 3 2 2 5 2 3 4 5 5 3 3 7 6 9 4 7 10 17 15 24 28 32
9 4 6 10 8 4 6 3 5 12 6 2 7 7 5 5 4 6 2 3 4 2 7 2 5 9 10 8 4 4 6 6 6 3 6 14 21 20 17 8 9 15 20 25 29
8 2 3 4 3 3 3 4 11 7 2 3 3 6 2 4 4 7 4 7 15 20 4 6 6 4 5 5 4 5 9 9 9 14 8 24 16 21 6 6 8 17 19 22 25
5 5 6 7 9 7 1 2 7 8 4 4 4 6 8 5 6 8 13 11 8 3 4 1 3 0 4 6 8 12 15 14 15 11 15 17 21 10 4 8 7 13 19 25 28
3 4 3 4 3 3 2 4 6 12 5 11 6 6 8 15 18 23 26 25 13 6 6 4 4 1 6 3 5 8 12 13 4 6 6 7 5 2 4 6 8 18 26 30 29
Wind_Direction
355 344 333 319 317 316 315 313 307 308 296 286 276 268 277 284 282 277 273 259 235 195 177 167 167 183 203 196 172 163 75 204 223 186 238 290 350 273 306 294 297 304 311 325 294
2 358 347 335 326 322 317 315 315 315 297 289 286 283 294 298 301 289 239 217 190 183 184 175 173 171 159 171 175 138 146 223 206 213 280 294 293 299 293 297 297 299 310 312 275
10 4 357 349 341 331 330 331 327 312 301 298 297 298 301 323 357 41 93 151 160 174 193 194 166 167 136 145 187 162 198 214 244 245 269 282 300 284 270 271 274 288 298 304 315
11 10 5 358 351 343 337 336 333 326 317 309 304 299 303 327 139 126 114 152 179 192 187 162 155 141 131 178 195 177 231 202 252 256 265 265 280 277 258 269 286 289 290 291 298
10 8 7 2 359 359 356 350 345 340 333 321 302 277 272 265 226 168 152 158 165 164 151 147 159 160 173 187 176 188 264 279 289 290 273 275 255 257 277 284 292 291 286 280 277
7 6 4 5 5 3 359 358 360 350 338 326 304 288 251 260 163 178 186 184 135 143 149 152 147 184 190 161 158 191 237 264 272 266 258 242 269 241 328 299 294 292 293 290 276
6 1 1 360 357 353 348 339 343 352 341 318 297 282 262 225 176 171 186 197 182 146 143 139 72 77 117 353 38 339 331 337 253 253 240 232 290 241 292 296 285 285 289 288 286
5 2 357 355 351 343 341 336 325 320 327 312 297 292 255 208 184 179 170 168 168 196 216 256 270 283 192 163 19 39 42 2 286 315 273 159 281 280 309 317 305 294 294 295 285
7 5 358 347 341 332 327 328 316 307 295 292 285 295 268 208 205 190 185 179 196 231 278 293 284 216 93 85 16 11 203 243 311 236 271 210 281 287 306 304 297 298 304 307 305
9 3 357 345 328 318 314 325 320 309 269 262 267 297 232 170 142 211 202 199 219 242 290 285 164 82 45 74 227 197 217 238 247 281 191 278 272 262 287 291 286 298 301 302 301
7 3 355 346 327 307 303 320 328 302 256 231 280 261 273 286 279 225 214 213 232 287 195 43 92 217 220 199 198 219 204 228 258 267 246 264 273 276 268 277 281 287 298 299 299
351 352 354 346 332 290 283 292 308 296 293 280 261 252 248 254 314 185 188 175 160 190 131 25 247 230 202 187 203 212 247 264 272 261 172 274 282 246 227 243 260 271 286 298 303
336 342 345 346 338 286 255 258 334 331 279 294 254 240 233 223 228 233 187 193 163 180 179 172 231 109 175 215 205 230 192 240 227 310 297 290 289 276 229 228 263 271 272 280 286
334 337 337 343 346 324 235 261 315 309 29 273 248 195 148 159 226 227 205 185 198 204 161 226 241 228 212 249 150 280 205 230 227 107 264 357 290 301 258 267 251 268 276 273 273
331 337 333 337 327 280 210 271 304 274 339 162 132 147 163 171 193 215 207 203 191 181 133 235 174 159 206 232 148 232 181 193 216 222 25 275 279 282 343 293 269 280 283 284 280
327 332 328 326 324 253 194 282 193 33 256 355 131 155 144 242 277 121 176 209 233 155 270 239 193 176 211 251 186 93 106 52 48 120 217 238 235 64 266 245 292 309 300 292 291
322 324 318 307 298 155 197 169 53 215 326 12 13 70 198 210 177 162 180 170 190 137 240 301 259 233 190 209 36 88 74 310 313 265 269 238 277 258 276 287 306 318 312 303 293
327 327 316 303 217 189 195 67 178 351 348 350 333 314 255 17 63 15 92 250 213 179 158 196 284 177 181 180 185 173 161 178 246 271 284 165 252 260 263 270 312 316 338 347 340
337 3 30 100 156 156 138 105 240 54 352 315 315 246 190 210 110 63 242 229 227 158 172 185 269 338 65 127 132 180 184 134 347 245 319 223 297 310 272 275 289 326 339 335 336
344 40 32 78 119 107 84 228 259 31 325 319 285 14 276 240 199 183 227 210 153 148 107 227 281 272 128 117 57 144 142 65 13 298 267 257 272 264 282 291 315 315 328 324 327
6 58 3 125 114 59 147 244 307 7 7 349 326 313 277 277 238 229 232 319 30 53 136 155 146 279 22 204 187 87 132 70 136 168 225 306 256 226 255 290 313 320 327 328 326
2 50 11 157 56 53 64 325 328 24 350 328 336 348 348 345 255 223 235 203 97 65 230 128 157 223 219 318 302 154 192 158 156 235 224 229 274 246 287 340 343 330 332 339 336
346 316 8 51 78 33 339 334 316 25 210 285 252 345 346 325 318 269 316 109 106 73 50 183 251 292 322 24 348 201 197 181 125 96 215 244 263 284 319 318 341 327 330 345 343
354 352 353 46 52 57 4 286 323 345 310 254 262 338 8 279 252 278 256 333 24 354 334 191 198 225 248 252 165 194 212 198 163 159 244 237 276 279 286 294 309 318 331 338 346
9 25 11 330 354 333 284 289 294 295 293 306 270 212 202 268 289 244 288 324 310 298 239 170 219 207 257 256 216 235 240 225 207 240 224 275 264 280 265 246 281 315 325 331 339
10 1 353 304 313 313 185 276 284 310 352 284 227 236 249 248 258 291 293 268 252 242 197 202 245 240 261 267 256 255 253 239 240 251 256 261 271 278 239 284 291 317 326 321 316
3 336 287 287 301 295 240 294 348 339 278 257 286 314 282 272 262 274 278 270 250 214 198 176 160 71 277 262 312 279 251 238 202 231 228 235 251 198 276 310 317 316 314 306 305